EW6800 Weather Reports


time (UTC)temp
C
wind
direction
speed
KPH
gust
KPH
rain 1hr
cm
rain 24hr
cm
rain mn
cm
humidity
%
barometer
mb
20260902014551 15 294 1.6 6.4 0.00 0.00 0.00 71 1016.8
20260902014045 15 296 1.6 6.4 0.00 0.00 0.00 71 1016.7
20260902013544 15 295 1.6 6.4 0.00 0.00 0.00 71 1016.8
20260902013104 15 282 1.6 8.0 0.00 0.00 0.00 70 1016.7
20260902012544 15 279 1.6 8.0 0.00 0.00 0.00 69 1016.8
20260902012044 15 294 3.2 8.0 0.00 0.00 0.00 68 1016.8
20260902011559 15 319 3.2 8.0 0.00 0.00 0.00 68 1016.8
20260902011045 15 315 3.2 6.4 0.00 0.00 0.00 68 1016.8
20260902010543 15 0 3.2 9.7 0.00 0.00 0.00 67 1016.6
20260902010059 15 327 3.2 12.9 0.00 0.00 0.00 67 1016.6
20260902005544 15 305 1.6 12.9 0.00 0.00 0.00 67 1016.5
20260902005044 15 304 6.4 12.9 0.00 0.00 0.00 66 1016.6
20260902004558 15 338 6.4 12.9 0.00 0.00 0.00 65 1016.6
20260902004045 16 300 6.4 12.9 0.00 0.00 0.00 65 1016.6
20260902003543 16 306 1.6 11.3 0.00 0.00 0.00 66 1016.6
20260902003055 16 300 1.6 6.4 0.00 0.00 0.00 66 1016.5
20260902002542 16 314 3.2 6.4 0.00 0.00 0.00 66 1016.6
20260902002042 16 290 3.2 8.0 0.00 0.00 0.00 66 1016.6
20260902001558 16 308 1.6 11.3 0.00 0.00 0.00 65 1016.6
20260902001044 16 302 3.2 14.5 0.00 0.00 0.00 65 1016.5
20260902000543 16 298 6.4 14.5 0.00 0.00 0.00 64 1016.5
20260902000058 16 249 3.2 14.5 0.00 0.00 0.00 65 1016.5
20260901235543 16 305 6.4 14.5 0.00 0.00 0.00 63 1016.5
20260901235043 16 284 3.2 11.3 0.00 0.00 0.00 63 1016.4
20260901234558 16 300 3.2 12.9 0.00 0.00 0.00 63 1016.5
20260901234043 17 301 3.2 12.9 0.00 0.00 0.00 62 1016.6
20260901233543 17 301 4.8 12.9 0.00 0.00 0.00 62 1016.5
20260901233052 17 291 4.8 12.9 0.00 0.00 0.00 60 1016.6
20260901232543 17 300 3.2 8.0 0.00 0.00 0.00 60 1016.5
20260901232046 17 290 1.6 8.0 0.00 0.00 0.00 59 1016.5
20260901231559 17 296 3.2 12.9 0.00 0.00 0.00 60 1016.6
20260901231042 17 290 3.2 12.9 0.00 0.00 0.00 60 1016.6
20260901230544 17 295 4.8 11.3 0.00 0.00 0.00 58 1016.5
20260901230058 17 298 4.8 14.5 0.00 0.00 0.00 59 1016.5
20260901225547 18 325 3.2 14.5 0.00 0.00 0.00 58 1016.6
20260901225043 18 294 4.8 14.5 0.00 0.00 0.00 58 1016.6
20260901224559 18 284 3.2 8.0 0.00 0.00 0.00 58 1016.6
20260901224046 18 291 3.2 9.7 0.00 0.00 0.00 60 1016.6
20260901223543 18 325 3.2 9.7 0.00 0.00 0.00 59 1016.6
20260901223100 18 350 3.2 14.5 0.00 0.00 0.00 59 1016.6
20260901222544 18 290 1.6 14.5 0.00 0.00 0.00 59 1016.8
20260901222043 18 286 3.2 14.5 0.00 0.00 0.00 58 1016.8
20260901221549 17 322 3.2 11.3 0.00 0.00 0.00 59 1016.8
20260901221044 17 269 3.2 11.3 0.00 0.00 0.00 58 1016.9
20260901220544 17 283 3.2 9.7 0.00 0.00 0.00 58 1016.9
20260901220104 17 317 3.2 11.3 0.00 0.00 0.00 58 1017.0
20260901215544 17 284 3.2 11.3 0.00 0.00 0.00 59 1017.0
20260901215044 17 297 3.2 14.5 0.00 0.00 0.00 59 1017.0
20260901214554 17 299 3.2 14.5 0.00 0.00 0.00 58 1017.0
20260901214043 18 325 3.2 14.5 0.00 0.00 0.00 57 1017.1
20260901213546 18 287 1.6 8.0 0.00 0.00 0.00 59 1017.0
20260901213052 17 327 1.6 11.3 0.00 0.00 0.00 60 1017.1
20260901212544 17 292 4.8 11.3 0.00 0.00 0.00 59 1017.1
20260901212043 17 297 3.2 8.0 0.00 0.00 0.00 62 1017.2
20260901211559 17 309 1.6 8.0 0.00 0.00 0.00 62 1017.2
20260901211042 17 304 3.2 8.0 0.00 0.00 0.00 62 1017.2
20260901210544 17 294 4.8 8.0 0.00 0.00 0.00 61 1017.2
20260901210057 17 191 3.2 8.0 0.00 0.00 0.00 62 1017.1
20260901205543 17 259 3.2 6.4 0.00 0.00 0.00 63 1017.1
20260901205044 17 102 1.6 12.9 0.00 0.00 0.00 62 1017.1
20260901204556 17 292 1.6 12.9 0.00 0.00 0.00 64 1017.1
20260901204047 17 249 3.2 8.0 0.00 0.00 0.00 63 1017.1
20260901203543 17 234 3.2 14.5 0.00 0.00 0.00 65 1017.3
20260901203052 16 320 3.2 14.5 0.00 0.00 0.00 64 1017.3
20260901202545 16 338 3.2 12.9 0.00 0.00 0.00 65 1017.2
20260901202043 16 257 3.2 8.0 0.00 0.00 0.00 65 1017.3
20260901201600 16 311 3.2 8.0 0.00 0.00 0.00 67 1017.4
20260901201043 16 225 1.6 9.7 0.00 0.00 0.00 69 1017.6
20260901200543 15 280 3.2 9.7 0.00 0.00 0.00 71 1017.6
20260901200108 15 229 3.2 6.4 0.00 0.00 0.00 71 1017.6
20260901195544 15 252 0.0 8.0 0.00 0.00 0.00 72 1017.6
20260901195045 15 322 3.2 8.0 0.00 0.00 0.00 72 1017.7
20260901194603 15 337 1.6 12.9 0.00 0.00 0.00 71 1017.6
20260901194043 15 317 3.2 12.9 0.00 0.00 0.00 70 1017.6
20260901193543 15 307 4.8 11.3 0.00 0.00 0.00 70 1017.6
20260901193101 15 292 1.6 8.0 0.00 0.00 0.00 68 1017.6
20260901192543 15 285 1.6 8.0 0.00 0.00 0.00 68 1017.6
20260901192043 15 269 1.6 6.4 0.00 0.00 0.00 69 1017.5
20260901191606 15 320 1.6 6.4 0.00 0.00 0.00 69 1017.5
20260901191044 15 226 1.6 6.4 0.00 0.00 0.00 71 1017.6
20260901190543 15 327 1.6 8.0 0.00 0.00 0.00 72 1017.5
20260901190104 14 0 1.6 8.0 0.00 0.00 0.00 73 1017.6
20260901185544 14 302 3.2 8.0 0.00 0.00 0.00 73 1017.6
20260901185043 15 301 3.2 8.0 0.00 0.00 0.00 72 1017.6
20260901184601 15 327 3.2 6.4 0.00 0.00 0.00 72 1017.6
20260901184043 15 317 1.6 6.4 0.00 0.00 0.00 72 1017.6
20260901183543 15 318 0.0 6.4 0.00 0.00 0.00 71 1017.5
20260901183101 15 0 0.0 4.8 0.00 0.00 0.00 70 1017.5
20260901182545 15 0 0.0 4.8 0.00 0.00 0.00 69 1017.5
20260901182045 15 0 0.0 4.8 0.00 0.00 0.00 69 1017.5
20260901181602 15 0 0.0 1.6 0.00 0.00 0.00 70 1017.5
20260901181042 14 0 0.0 1.6 0.00 0.00 0.00 69 1017.5
20260901180543 15 0 0.0 3.2 0.00 0.00 0.00 70 1017.5
20260901180124 14 0 0.0 3.2 0.00 0.00 0.00 70 1017.6
20260901175548 14 0 0.0 3.2 0.00 0.00 0.00 70 1017.4
20260901175045 14 0 0.0 3.2 0.00 0.00 0.00 69 1017.4
20260901174603 14 0 0.0 1.6 0.00 0.00 0.00 72 1017.4
20260901174043 13 0 0.0 4.8 0.00 0.00 0.00 71 1017.3
20260901173546 13 0 0.0 4.8 0.00 0.00 0.00 73 1017.3
20260901173109 13 300 1.6 4.8 0.00 0.00 0.00 74 1017.3
20260901172546 13 0 0.0 0.0 0.00 0.00 0.00 75 1017.2
20260901172045 13 0 0.0 4.8 0.00 0.00 0.00 74 1017.1
20260901171612 13 0 0.0 4.8 0.00 0.00 0.00 74 1017.2
20260901171043 13 300 0.0 6.4 0.00 0.00 0.00 74 1017.0
20260901170543 13 301 1.6 6.4 0.00 0.00 0.00 74 1017.1
20260901170100 13 301 1.6 4.8 0.00 0.00 0.00 74 1016.9
20260901165543 12 269 1.6 6.4 0.00 0.00 0.00 75 1017.0
20260901165043 12 0 1.6 6.4 0.00 0.00 0.00 74 1016.8
20260901164600 12 0 1.6 4.8 0.00 0.00 0.00 76 1016.7
20260901164043 12 310 1.6 4.8 0.00 0.00 0.00 76 1016.7
20260901163543 12 310 0.0 4.8 0.00 0.00 0.00 76 1016.8
20260901163053 12 311 1.6 8.0 0.00 0.00 0.00 77 1016.7
20260901162547 12 302 3.2 8.0 0.00 0.00 0.00 76 1016.8
20260901162046 12 0 0.0 4.8 0.00 0.00 0.00 79 1016.7
20260901161551 12 0 1.6 4.8 0.00 0.00 0.00 78 1016.6
20260901161043 12 0 0.0 4.8 0.00 0.00 0.00 79 1016.6
20260901160543 12 315 1.6 4.8 0.00 0.00 0.00 78 1016.8
20260901160104 12 0 0.0 4.8 0.00 0.00 0.00 80 1016.8
20260901155545 12 0 0.0 3.2 0.00 0.00 0.00 80 1016.9
20260901155047 12 219 0.0 3.2 0.00 0.00 0.00 80 1016.7
20260901154558 12 0 0.0 0.0 0.00 0.00 0.00 80 1016.5
20260901154043 11 0 0.0 4.8 0.00 0.00 0.00 80 1016.5
20260901153545 11 0 0.0 4.8 0.00 0.00 0.00 80 1016.5
20260901153054 11 206 0.0 1.6 0.00 0.00 0.00 81 1016.3
20260901152544 11 0 0.0 1.6 0.00 0.00 0.00 82 1016.3
20260901152043 11 0 0.0 1.6 0.00 0.00 0.00 82 1016.3
20260901151609 11 0 0.0 0.0 0.00 0.00 0.00 81 1016.3
20260901151045 11 0 0.0 0.0 0.00 0.00 0.00 82 1016.3
20260901150544 11 0 0.0 0.0 0.00 0.00 0.00 82 1016.2
20260901150056 11 0 0.0 1.6 0.00 0.00 0.00 82 1016.2
20260901145545 11 0 0.0 1.6 0.00 0.00 0.00 82 1016.3
20260901145043 11 0 0.0 0.0 0.00 0.00 0.00 81 1016.2
20260901144559 11 0 0.0 0.0 0.00 0.00 0.00 82 1016.0
20260901144046 11 0 0.0 0.0 0.00 0.00 0.00 83 1015.9
20260901143543 11 0 0.0 0.0 0.00 0.00 0.00 83 1016.0
20260901143108 11 0 0.0 3.2 0.00 0.00 0.00 83 1016.0
20260901142544 11 0 0.0 3.2 0.00 0.00 0.00 83 1015.8
20260901142044 11 0 0.0 1.6 0.00 0.00 0.00 83 1015.7
20260901141559 11 0 0.0 1.6 0.00 0.00 0.00 83 1015.8
20260901141044 11 0 0.0 3.2 0.00 0.00 0.00 83 1015.7
20260901140542 11 0 0.0 3.2 0.00 0.00 0.00 83 1015.7
20260901140106 11 0 0.0 0.0 0.00 0.00 0.00 83 1015.6
20260901135545 11 0 0.0 3.2 0.00 0.00 0.00 83 1015.6
20260901135042 11 0 0.0 3.2 0.00 0.00 0.00 83 1015.4
20260901134555 11 0 0.0 3.2 0.00 0.00 0.00 82 1015.4
20260901134044 11 0 0.0 1.6 0.00 0.00 0.00 83 1015.5
20260901133543 11 0 0.0 1.6 0.00 0.00 0.00 83 1015.4
20260901133054 11 188 0.0 1.6 0.00 0.00 0.00 83 1015.4
20260901132543 11 0 0.0 1.6 0.00 0.00 0.00 83 1015.4
20260901132043 11 0 0.0 1.6 0.00 0.00 0.00 84 1015.3
20260901131603 11 0 0.0 1.6 0.00 0.00 0.00 84 1015.3
20260901131043 11 0 0.0 0.0 0.00 0.00 0.00 83 1015.3
20260901130543 11 0 0.0 0.0 0.00 0.00 0.00 83 1015.3
20260901130057 11 0 0.0 0.0 0.00 0.00 0.00 84 1015.3
20260901125545 11 0 0.0 3.2 0.00 0.00 0.00 84 1015.3
20260901125042 11 0 0.0 3.2 0.00 0.00 0.00 84 1015.3
20260901124554 11 290 0.0 3.2 0.00 0.00 0.00 83 1015.1
20260901124047 11 0 0.0 0.0 0.00 0.00 0.00 84 1015.0
20260901123544 11 0 0.0 0.0 0.00 0.00 0.00 85 1015.0
20260901123109 11 0 0.0 0.0 0.00 0.00 0.00 85 1015.0
20260901122544 11 0 0.0 0.0 0.00 0.00 0.00 86 1015.0
20260901122044 11 0 0.0 1.6 0.00 0.00 0.00 86 1015.0
20260901121608 11 0 0.0 3.2 0.00 0.00 0.00 86 1015.0
20260901121047 11 0 0.0 3.2 0.00 0.00 0.00 86 1015.0
20260901120546 11 290 0.0 4.8 0.00 0.00 0.00 85 1015.1
20260901120057 11 290 1.6 4.8 0.00 0.00 0.00 86 1015.0
20260901115544 11 0 0.0 3.2 0.00 0.00 0.00 85 1015.0
20260901115045 11 323 0.0 4.8 0.00 0.00 0.00 86 1015.0
20260901114553 11 323 0.0 4.8 0.00 0.00 0.00 86 1015.1
20260901114044 11 0 0.0 6.4 0.00 0.00 0.00 87 1014.9
20260901113545 11 0 1.6 6.4 0.00 0.00 0.00 87 1015.1
20260901113106 11 323 1.6 6.4 0.00 0.00 0.00 87 1015.1
20260901112545 11 323 1.6 4.8 0.00 0.00 0.00 87 1015.1
20260901112044 11 323 1.6 4.8 0.00 0.00 0.00 87 1015.1
20260901111559 11 323 0.0 3.2 0.00 0.00 0.00 88 1015.1
20260901111047 11 323 0.0 3.2 0.00 0.00 0.00 87 1015.2
20260901110545 11 323 0.0 3.2 0.00 0.00 0.00 87 1015.1
20260901110103 11 323 1.6 3.2 0.00 0.00 0.00 87 1015.2
20260901105545 11 323 1.6 4.8 0.00 0.00 0.00 87 1015.2
20260901105045 11 0 0.0 4.8 0.00 0.00 0.00 87 1015.1
20260901104559 11 0 0.0 4.8 0.00 0.00 0.00 87 1015.1
20260901104044 11 0 1.6 4.8 0.00 0.00 0.00 87 1015.1
20260901103546 11 0 0.0 3.2 0.00 0.00 0.00 87 1015.0
20260901103106 11 0 0.0 3.2 0.00 0.00 0.00 87 1014.8
20260901102544 11 0 0.0 3.2 0.00 0.00 0.00 87 1015.0
20260901102046 11 0 0.0 3.2 0.00 0.00 0.00 88 1014.9
20260901101554 11 323 0.0 1.6 0.00 0.00 0.00 88 1014.9
20260901101043 11 0 0.0 3.2 0.00 0.00 0.00 88 1014.8
20260901100546 11 0 0.0 3.2 0.00 0.00 0.00 88 1014.8
20260901100205 11 323 1.6 3.2 0.00 0.00 0.00 88 1014.7
20260901095545 11 0 0.0 3.2 0.00 0.00 0.00 88 1014.7
20260901095043 11 323 0.0 8.0 0.00 0.00 0.00 88 1014.7
20260901094600 11 0 1.6 8.0 0.00 0.00 0.00 87 1014.7
20260901094042 11 304 4.8 8.0 0.00 0.00 0.00 87 1014.6
20260901093543 11 317 3.2 6.4 0.00 0.00 0.00 87 1014.6
20260901093111 11 308 1.6 4.8 0.00 0.00 0.00 87 1014.6
20260901092543 11 308 0.0 8.0 0.00 0.00 0.00 87 1014.6
20260901092043 11 308 1.6 8.0 0.00 0.00 0.00 87 1014.5
20260901091609 11 304 4.8 8.0 0.00 0.00 0.00 86 1014.5
20260901091042 11 315 1.6 6.4 0.00 0.00 0.00 87 1014.5
20260901090543 11 315 1.6 4.8 0.00 0.00 0.00 86 1014.7
20260901090056 11 315 0.0 6.4 0.00 0.00 0.00 87 1014.7
20260901085542 11 315 0.0 6.4 0.00 0.00 0.00 86 1014.7
20260901085043 11 315 3.2 6.4 0.00 0.00 0.00 86 1014.6
20260901084600 11 333 1.6 4.8 0.00 0.00 0.00 86 1014.7
20260901084040 11 333 1.6 4.8 0.00 0.00 0.00 86 1014.7
20260901083543 11 333 3.2 4.8 0.00 0.00 0.00 86 1014.5
20260901083102 11 338 0.0 4.8 0.00 0.00 0.00 87 1014.5
20260901082544 11 338 0.0 6.4 0.00 0.00 0.00 87 1014.5
20260901082048 11 0 1.6 6.4 0.00 0.00 0.00 87 1014.5
20260901081559 11 342 1.6 4.8 0.00 0.00 0.00 87 1014.5
20260901081042 11 342 0.0 4.8 0.00 0.00 0.00 87 1014.6
20260901080542 11 342 0.0 8.0 0.00 0.00 0.00 87 1014.6
20260901080059 11 322 1.6 8.0 0.00 0.00 0.00 86 1014.7
20260901075544 11 320 1.6 6.4 0.00 0.00 0.00 86 1014.6
20260901075043 11 320 1.6 8.0 0.00 0.00 0.00 86 1014.6
20260901074603 11 320 4.8 8.0 0.00 0.00 0.00 87 1014.5
20260901074044 11 316 1.6 6.4 0.00 0.00 0.00 87 1014.5
20260901073543 11 0 0.0 6.4 0.00 0.00 0.00 87 1014.6
20260901073101 11 316 3.2 6.4 0.00 0.00 0.00 87 1014.7
20260901072543 11 313 3.2 8.0 0.00 0.00 0.00 87 1014.9
20260901072045 11 317 1.6 9.7 0.00 0.00 0.00 87 1014.9
20260901071557 11 323 3.2 9.7 0.00 0.00 0.00 87 1014.9
20260901071042 11 311 1.6 9.7 0.00 0.00 0.00 88 1014.8
20260901070544 11 312 4.8 9.7 0.00 0.00 0.00 87 1014.7
20260901070103 11 0 0.0 3.2 0.00 0.00 0.00 88 1014.8
20260901065545 11 0 0.0 8.0 0.00 0.00 0.00 88 1014.7
20260901065043 11 0 3.2 8.0 0.00 0.00 0.00 88 1014.7
20260901064602 11 310 3.2 8.0 0.00 0.00 0.00 88 1014.8
20260901064049 11 309 3.2 8.0 0.00 0.00 0.00 88 1014.8
20260901063542 11 309 1.6 8.0 0.00 0.00 0.00 88 1014.9
20260901063058 11 294 3.2 8.0 0.00 0.00 0.00 88 1014.9
20260901062546 11 323 0.0 6.4 0.00 0.00 0.00 89 1014.9
20260901062043 11 312 1.6 9.7 0.00 0.00 0.00 89 1014.9
20260901061605 11 312 1.6 9.7 0.00 0.00 0.00 88 1014.8
20260901061044 11 309 1.6 11.3 0.00 0.00 0.00 89 1014.8
20260901060543 11 319 1.6 11.3 0.00 0.00 0.00 89 1014.9
20260901060055 11 327 3.2 9.7 0.00 0.00 0.00 89 1015.0
20260901055543 11 298 4.8 11.3 0.00 0.00 0.00 89 1015.0
20260901055044 11 317 4.8 11.3 0.00 0.00 0.00 89 1015.1
20260901054554 11 321 4.8 11.3 0.00 0.00 0.00 89 1015.0
20260901054045 11 321 6.4 11.3 0.00 0.00 0.00 89 1015.1
20260901053546 11 304 3.2 12.9 0.00 0.00 0.00 89 1015.1
20260901053107 11 321 6.4 12.9 0.00 0.00 0.00 89 1015.1
20260901052543 11 304 6.4 12.9 0.00 0.00 0.00 89 1015.1
20260901052045 11 309 4.8 11.3 0.00 0.00 0.00 89 1015.1
20260901051607 11 308 4.8 11.3 0.00 0.00 0.00 89 1015.1
20260901051047 11 326 4.8 11.3 0.00 0.00 0.00 89 1015.0
20260901050545 11 313 3.2 9.7 0.00 0.00 0.00 89 1015.0
20260901050054 11 299 3.2 8.0 0.00 0.00 0.00 89 1014.9
20260901045544 11 314 3.2 8.0 0.00 0.00 0.00 89 1014.8
20260901045043 11 319 4.8 11.3 0.00 0.00 0.00 89 1014.8
20260901044618 11 308 4.8 11.3 0.00 0.00 0.00 89 1014.7
20260901044045 11 317 4.8 8.0 0.00 0.00 0.00 89 1014.7
20260901043544 11 315 3.2 9.7 0.00 0.00 0.00 89 1014.7
20260901043059 11 315 4.8 11.3 0.00 0.00 0.00 89 1014.7
20260901042543 11 320 4.8 11.3 0.00 0.00 0.00 89 1014.6
20260901042043 11 307 3.2 14.5 0.00 0.00 0.00 89 1014.7
20260901041559 11 323 6.4 14.5 0.00 0.00 0.00 88 1014.6
20260901041047 11 309 6.4 14.5 0.00 0.00 0.00 89 1014.5
20260901040543 11 303 6.4 12.9 0.00 0.00 0.00 89 1014.5
20260901040055 11 319 6.4 12.9 0.00 0.00 0.00 90 1014.5
20260901035546 11 319 4.8 14.5 0.00 0.00 0.00 90 1014.5
20260901035048 11 313 4.8 14.5 0.00 0.00 0.00 90 1014.5
20260901034559 11 321 4.8 11.3 0.00 0.00 0.00 90 1014.5
20260901034043 11 312 4.8 8.0 0.00 0.00 0.00 90 1014.5
20260901033544 11 319 1.6 8.0 0.00 0.00 0.00 90 1014.5
20260901033053 11 311 4.8 9.7 0.00 0.00 0.00 90 1014.4
20260901032544 11 318 4.8 9.7 0.00 0.00 0.00 90 1014.3
20260901032045 11 306 3.2 12.9 0.00 0.00 0.00 89 1014.3
20260901031553 11 313 4.8 12.9 0.00 0.00 0.00 89 1014.3
20260901031044 11 309 4.8 11.3 0.00 0.00 0.00 89 1014.3
20260901030549 11 324 6.4 12.9 0.00 0.00 0.00 89 1014.3
20260901030053 11 331 6.4 12.9 0.00 0.00 0.00 89 1014.2
20260901025545 11 313 6.4 12.9 0.00 0.00 0.00 89 1014.1
20260901025047 11 314 6.4 11.3 0.00 0.00 0.00 89 1014.0
20260901024608 11 315 4.8 11.3 0.00 0.00 0.00 89 1014.1
20260901024045 11 308 4.8 12.9 0.00 0.00 0.00 89 1014.0
20260901023543 11 299 4.8 12.9 0.00 0.00 0.00 89 1014.0
20260901023101 11 300 6.4 12.9 0.00 0.00 0.00 88 1014.0
20260901022544 11 302 6.4 12.9 0.00 0.00 0.00 88 1014.0
20260901022044 12 319 6.4 11.3 0.00 0.00 0.00 88 1014.0
20260901021557 12 306 4.8 11.3 0.00 0.00 0.00 88 1014.1
20260901021129 12 282 4.8 11.3 0.00 0.00 0.00 87 1014.0
20260901020540 12 304 4.8 14.5 0.00 0.00 0.00 87 1014.0
20260901020051 12 311 6.4 14.5 0.00 0.00 0.00 87 1013.9
20260901015542 12 317 8.0 16.1 0.00 0.00 0.00 87 1013.8
20260901015043 12 301 6.4 16.1 0.00 0.00 0.00 86 1014.0